This demonstration page uses our WeatherBlox Daily Observations layout. Learn more.

Left ArrowRight Arrow

Hourly Observations for May 17, 2015

Temp ( °F °C ) Dew Point ( °F °C ) Humidity (%) Winds ( mph kmh ) Pressure ( in mb ) Visibility ( mi km ) Precip ( " mm )
12:15 am 00:15 Cloudy 68 20 68 20 100 100 S 3 6 30.18 1022 7 11 N/A
12:35 am 00:35 Mostly Cloudy 68 20 68 20 100 100 S 3 6 30.18 1022 7 11 N/A
12:55 am 00:55 Cloudy with Mist and Fog 68 20 68 20 100 100 S 3 6 30.18 1022 5 8 N/A
1:15 am 01:15 Cloudy with Mist and Fog 68 20 68 20 100 100 N N/A 30.18 1022 4 6 N/A
1:35 am 01:35 Cloudy with Fog 68 20 68 20 100 100 N N/A 30.18 1022 1 1 N/A
1:55 am 01:55 Cloudy with Fog 68 20 68 20 100 100 N N/A 30.18 1022 1 1 N/A
2:15 am 02:15 Cloudy with Fog 68 20 68 20 100 100 S 3 6 30.18 1022 1 1 N/A
2:35 am 02:35 Cloudy with Fog 68 20 68 20 100 100 N N/A 30.15 1021 1 1 N/A
2:55 am 02:55 Cloudy with Mist and Fog 68 20 68 20 100 100 N N/A 30.15 1021 1 2 N/A
3:15 am 03:15 Cloudy with Mist and Fog 66 19 66 19 100 100 NNW 3 6 30.15 1021 2 3 N/A
3:35 am 03:35 Cloudy with Fog 66 19 66 19 100 100 N N/A 30.15 1021 0 0 N/A
3:55 am 03:55 Cloudy with Fog 66 19 66 19 100 100 N N/A 30.15 1021 1 1 N/A
4:15 am 04:15 Cloudy with Mist and Fog 64 18 64 18 100 100 N N/A 30.15 1021 3 5 N/A
4:35 am 04:35 Cloudy with Mist and Fog 64 18 64 18 100 100 N N/A 30.15 1021 1 2 N/A
4:55 am 04:55 Cloudy with Mist and Fog 64 18 64 18 100 100 N N/A 30.15 1021 1 2 N/A
5:15 am 05:15 Cloudy with Mist and Fog 64 18 64 18 100 100 N N/A 30.15 1021 4 6 N/A
5:35 am 05:35 Cloudy with Mist and Fog 64 18 64 18 100 100 N N/A 30.18 1022 1 1 N/A
5:55 am 05:55 Cloudy with Mist and Fog 64 18 64 18 100 100 N N/A 30.18 1022 1 2 N/A
6:15 am 06:15 Cloudy with Mist and Fog 64 18 64 18 100 100 N N/A 30.18 1022 3 4 N/A
6:35 am 06:35 Mostly Cloudy with Mist and Fog 64 18 64 18 100 100 N N/A 30.18 1022 4 6 N/A
6:55 am 06:55 Cloudy 66 19 66 19 100 100 N N/A 30.21 1023 7 11 N/A
7:15 am 07:15 Cloudy 66 19 66 19 100 100 N N/A 30.21 1023 10 16 N/A
7:35 am 07:35 Cloudy with Light Rain 66 19 66 19 100 100 N N/A 30.21 1023 10 16 N/A
7:55 am 07:55 Mostly Cloudy 68 20 68 20 100 100 N N/A 30.21 1023 10 16 N/A
8:15 am 08:15 Partly Cloudy 68 20 68 20 100 100 N N/A 30.21 1023 10 16 N/A
8:35 am 08:35 Mostly Cloudy 68 20 68 20 100 100 N N/A 30.21 1023 10 16 N/A
8:55 am 08:55 Cloudy with Drizzle 70 21 70 21 100 100 N N/A 30.21 1023 10 16 N/A
9:15 am 09:15 Cloudy with Light Rain 70 21 70 21 100 100 SW 3 6 30.24 1024 10 16 N/A
9:35 am 09:35 Mostly Cloudy 70 21 70 21 100 100 N N/A 30.24 1024 10 16 N/A
9:55 am 09:55 Mostly Cloudy with Light Rain 72 22 72 22 100 100 N N/A 30.24 1024 10 16 N/A
10:15 am 10:15 Mostly Cloudy 72 22 72 22 100 100 W 5 7 30.24 1024 10 16 N/A
10:35 am 10:35 Partly Cloudy 77 25 73 23 89 89 W 6 9 30.24 1024 10 16 N/A
10:55 am 10:55 Mostly Cloudy 77 25 72 22 83 83 W 5 7 30.24 1024 10 16 N/A
11:15 am 11:15 Cloudy 77 25 72 22 83 83 SSW 7 11 30.24 1024 10 16 N/A
11:35 am 11:35 Cloudy 77 25 72 22 83 83 SW 5 7 30.24 1024 10 16 N/A
11:55 am 11:55 Cloudy 77 25 70 21 79 79 SSW 6 9 30.24 1024 10 16 N/A
12:15 pm 12:15 Mostly Cloudy 79 26 72 22 79 79 WSW 5 7 30.21 1023 10 16 N/A
12:35 pm 12:35 Cloudy 79 26 70 21 74 74 W 5 7 30.21 1023 10 16 N/A
12:55 pm 12:55 Mostly Cloudy 79 26 70 21 74 74 W 9 15 30.21 1023 10 16 N/A
1:15 pm 13:15 Mostly Cloudy 79 26 70 21 74 74 WSW 3 6 30.21 1023 10 16 N/A
1:35 pm 13:35 Mostly Cloudy 81 27 70 21 70 70 W 10 17 30.21 1023 10 16 N/A
1:55 pm 13:55 Partly Cloudy 81 27 70 21 70 70 WNW 12 19 30.21 1023 10 16 N/A
2:15 pm 14:15 Partly Cloudy 82 28 70 21 66 66 W 7 11 30.18 1022 10 16 N/A
2:35 pm 14:35 Partly Cloudy 81 27 70 21 70 70 WSW 3 6 30.18 1022 10 16 N/A
2:55 pm 14:55 Partly Cloudy 81 27 70 21 70 70 SW 8 13 30.18 1022 10 16 N/A
3:15 pm 15:15 Partly Cloudy 82 28 70 21 66 66 SW 7 11 30.18 1022 10 16 N/A
3:35 pm 15:35 Partly Cloudy 81 27 72 22 74 74 WSW 5 7 30.18 1022 10 16 N/A
3:55 pm 15:55 Partly Cloudy 82 28 72 22 70 70 WSW 8 13 30.15 1021 10 16 N/A
4:15 pm 16:15 Partly Cloudy 81 27 70 21 70 70 WSW 9 15 30.15 1021 10 16 N/A
4:35 pm 16:35 Partly Cloudy 81 27 70 21 70 70 SW 8 13 30.15 1021 10 16 N/A
4:55 pm 16:55 Sunny 81 27 70 21 70 70 WSW 8 13 30.15 1021 10 16 N/A
5:15 pm 17:15 Sunny 81 27 68 20 66 66 W 5 7 30.15 1021 10 16 N/A
5:35 pm 17:35 Sunny 82 28 70 21 66 66 SW 7 11 30.15 1021 10 16 N/A
5:55 pm 17:55 Sunny 82 28 70 21 66 66 SSW 9 15 30.15 1021 10 16 N/A
6:15 pm 18:15 Sunny 82 28 70 21 66 66 SW 7 11 30.15 1021 10 16 N/A
6:35 pm 18:35 Partly Cloudy 82 28 70 21 66 66 SSW 13 20 30.15 1021 10 16 N/A
6:55 pm 18:55 Sunny 82 28 70 21 66 66 SSW 12 19 30.15 1021 10 16 N/A
7:15 pm 19:15 Sunny 81 27 70 21 70 70 SW 9 15 30.15 1021 10 16 N/A
7:35 pm 19:35 Partly Cloudy 81 27 70 21 70 70 SSW 3 6 30.15 1021 10 16 N/A
7:55 pm 19:55 Cloudy 81 27 72 22 74 74 N N/A 30.15 1021 10 16 N/A
8:15 pm 20:15 Partly Cloudy 77 25 72 22 83 83 N N/A 30.15 1021 10 16 N/A
8:35 pm 20:35 Partly Cloudy 77 25 72 22 83 83 WSW 3 6 30.15 1021 10 16 N/A
8:55 pm 20:55 Mostly Cloudy with Rain 75 24 72 22 89 89 WSW 8 13 30.15 1021 5 8 0.06 1.52
9:15 pm 21:15 Partly Cloudy 73 23 72 22 94 94 WSW 5 7 30.15 1021 10 16 N/A
9:35 pm 21:35 Clear 72 22 72 22 100 100 WSW 5 7 30.15 1021 10 16 N/A
9:55 pm 21:55 Clear 72 22 72 22 100 100 SW 5 7 30.15 1021 10 16 N/A
10:15 pm 22:15 Partly Cloudy 72 22 72 22 100 100 SW 6 9 30.15 1021 10 16 N/A
10:35 pm 22:35 Clear 72 22 72 22 100 100 SW 5 7 30.15 1021 10 16 N/A
10:55 pm 22:55 Clear 72 22 72 22 100 100 SW 6 9 30.15 1021 10 16 N/A
11:15 pm 23:15 Clear 72 22 70 21 94 94 SW 6 9 30.15 1021 10 16 N/A
11:35 pm 23:35 Partly Cloudy 72 22 72 22 100 100 WSW 5 7 30.15 1021 10 16 N/A
11:55 pm 23:55 Mostly Cloudy 72 22 72 22 100 100 SSW 3 6 30.15 1021 10 16 N/A

Powered by AerisWeather